Location: Stuart
(27.1975°N, 80.2528°W)
Time: 14:49:59
(UTC-04:00)

N. Korean satellite - Visible Passes

Search period start: 15 May 2021 00:00
Search period end: 25 May 2021 00:00
Orbit: 450 x 501 km, 97.2° (Epoch: 14 May)

Date Brightness Start Highest point End Pass type
(mag) Time Alt. Az. Time Alt. Az. Time Alt. Az.
15 May 8.7 06:05:33 10° NE 06:08:29 27° E 06:11:24 10° SSE visible
16 May 9.8 05:40:25 10° E 05:41:16 11° E 05:42:08 10° ESE visible
19 May 9.4 05:50:57 10° NE 05:53:10 16° E 05:55:24 10° SE visible
22 May 8.9 06:02:11 10° NE 06:05:02 24° E 06:07:53 10° SSE visible
